Winter Haven, FL

1:26 AM EST on December 13, 2017 (GMT -0500)
Winter Haven's-Gilbert

Weather History for KGIF - January, 2014

Change the Weather History Date:

Wednesday, January 8, 2014

  Actual Average Record
Temperature  
Mean Temperature 52 °F -  
Max Temperature 66 °F 75 °F 87 °F (1989)
Min Temperature 37 °F 53 °F 27 °F (1970)
Degree Days  
Heating Degree Days 14    
Growing Degree Days 2 (Base 50)    
Moisture  
Dew Point 43 °F    
Average Humidity 69    
Maximum Humidity 80    
Minimum Humidity 54    
Precipitation  
Precipitation 0.00 in - - ()
Sea Level Pressure  
Sea Level Pressure 30.34 in    
Wind  
Wind Speed 11 mph (NNE)    
Max Wind Speed 13 mph    
Max Gust Speed -    
Visibility 10 miles    
Events      
Averages and records for this station are not official NWS values.
T = Trace of Precipitation, MM = Missing Value Source: NWS Daily Summary

Daily Weather History Graph

Daily Weather History Graph

Search for Another Location

Airport or City:

Trip Planner

Search our weather history database for the weather conditions in past years. The results will help you decide how hot, cold, wet, or windy it might be!

Date:

Astronomy

Jan. 08, 2014 Rise Set
Actual Time 7:19 AM EST 5:47 PM EST
Civil Twilight 6:54 AM EST 6:13 PM EST
Nautical Twilight 6:25 AM EST 6:42 PM EST
Astronomical Twilight 5:56 AM EST 7:10 PM EST
Moon 12:24 PM EST (1/8) 12:41 AM EST (1/8)
Length of Visible Light 11h 19m
Length of Day
10h 28m
First Quarter, 56% of the Moon is Illuminated
Jan 8
First Quarter
Jan 15
Full
Jan 24
Last Quarter
Jan 30
New
Feb 6
First Quarter

Hourly Weather History & Observations

Time (EST) Temp. Windchill Dew Point Humidity Pressure Visibility Wind Dir Wind Speed Gust Speed Precip Events Conditions
12:53 AM 37.0 °F 29.8 °F 30.0 °F 76% 30.40 in 10.0 mi North 10.4 mph - N/A   Clear
1:53 AM 37.0 °F 30.4 °F 30.9 °F 79% 30.38 in 10.0 mi North 9.2 mph - N/A   Scattered Clouds
2:53 AM 39.0 °F 32.8 °F 32.0 °F 76% 30.38 in 10.0 mi North 9.2 mph - N/A   Overcast
3:53 AM 39.9 °F 32.9 °F 33.1 °F 77% 30.36 in 10.0 mi NNE 11.5 mph - N/A   Overcast
4:53 AM 39.9 °F 33.4 °F 34.0 °F 79% 30.35 in 10.0 mi North 10.4 mph - N/A   Overcast
5:53 AM 41.0 °F 34.3 °F 35.1 °F 79% 30.36 in 10.0 mi North 11.5 mph - N/A   Mostly Cloudy
6:53 AM 42.1 °F 35.2 °F 36.0 °F 79% 30.37 in 10.0 mi NNE 12.7 mph - N/A   Overcast
7:53 AM 43.0 °F 36.4 °F 37.0 °F 80% 30.39 in 10.0 mi NNE 12.7 mph - N/A   Overcast
8:53 AM 46.0 °F 40.2 °F 39.0 °F 76% 30.40 in 10.0 mi NNE 12.7 mph - N/A   Overcast
9:53 AM 50.0 °F - 42.1 °F 74% 30.41 in 10.0 mi NE 10.4 mph - N/A   Overcast
10:53 AM 55.0 °F - 45.0 °F 69% 30.40 in 10.0 mi NE 10.4 mph - N/A   Overcast
11:53 AM 61.0 °F - 46.0 °F 58% 30.36 in 10.0 mi NE 11.5 mph - N/A   Overcast
12:53 PM 62.1 °F - 46.9 °F 58% 30.33 in 10.0 mi NNE 9.2 mph - N/A   Overcast
1:53 PM 64.9 °F - 48.0 °F 54% 30.30 in 10.0 mi East 12.7 mph - N/A   Overcast
2:53 PM 66.0 °F - 48.9 °F 54% 30.30 in 10.0 mi ENE 12.7 mph - N/A   Overcast
3:53 PM 66.0 °F - 48.9 °F 54% 30.29 in 10.0 mi ENE 10.4 mph - N/A   Overcast
4:53 PM 64.9 °F - 50.0 °F 58% 30.30 in 10.0 mi ENE 9.2 mph - N/A   Overcast
5:53 PM 64.0 °F - 50.0 °F 60% 30.30 in 10.0 mi East 12.7 mph - N/A   Overcast
6:53 PM 62.1 °F - 50.0 °F 65% 30.30 in 10.0 mi ENE 9.2 mph - N/A   Mostly Cloudy
7:53 PM 62.1 °F - 50.0 °F 65% 30.31 in 10.0 mi NE 10.4 mph - N/A   Overcast
8:53 PM 62.1 °F - 50.0 °F 65% 30.32 in 10.0 mi NE 10.4 mph - N/A   Overcast
9:53 PM 62.1 °F - 50.0 °F 65% 30.32 in 10.0 mi NNE 6.9 mph - N/A   Overcast
10:53 PM 59.0 °F - 51.1 °F 75% 30.32 in 10.0 mi NNW 8.1 mph - N/A   Overcast
11:53 PM 57.9 °F - 50.0 °F 75% 30.32 in 10.0 mi North 6.9 mph - N/A   Overcast